Regional Weather Roundup
Issued by NWS Nashville, TN

Home | Current Version | Previous Version | Text Only | Print | Product List | Glossary On
Versions: 1 2 3 4 5 6 7 8 9 10 11 12 13 14 15 16 17 18 19 20 21 22 23 24 25 26 27 28
000
ASUS44 KOHX 201710
RWROHX
MIDDLE TENNESSEE HOURLY WEATHER ROUNDUP
NATIONAL WEATHER SERVICE NASHVILLE TN
1100 AM CST MON NOV 20 2017

NOTE: "FAIR" INDICATES FEW OR NO CLOUDS BELOW 12,000 FEET WITH
NO SIGNIFICANT WEATHER AND/OR OBSTRUCTIONS TO VISIBILITY.

* THESE REPORTS ARE NOT UNDER NWS QUALITY CONTROL AND MAY NOT
  REPORT WEATHER SUCH AS PRECIPITATION AND FOG.


TNZ005>011-023>034-057-059-062>066-078-080-201800
...NORTHERN MIDDLE TENNESSEE...

CITY           SKY/WX    TMP DP  RH WIND       PRES   REMARKS
CLARKSVILLE    SUNNY     44  23  43 S6        30.24F
CROSSVILLE     SUNNY     46  24  42 VRB3      30.22F
GALLATIN       SUNNY     43  27  52 CALM      30.28F
DICKSON          N/A     46  23  39 VRB6      30.21F
LEBANON        SUNNY     45  25  45 CALM      30.24F
NASHVILLE      PTSUNNY   45  23  42 SE3       30.25F
PORTLAND       SUNNY     45  23  42 VRB5      30.24F
SMYRNA         SUNNY     44  26  49 CALM      30.27F
SPARTA         SUNNY     46  27  46 CALM      30.24F
SPRINGFIELD    SUNNY     46  25  42 VRB7      30.22F
WEST NASHVILLE SUNNY     46  25  42 E6        30.23F
$$
TNZ056-058-060-061-075>077-079-093>097-201800
...SOUTHERN MIDDLE TENNESSEE...

CITY           SKY/WX    TMP DP  RH WIND       PRES   REMARKS
COLUMBIA       SUNNY     45  27  49 CALM      30.22F
FAYETTEVILLE   SUNNY     46  27  46 CALM      30.23F
MCMINNVILLE    SUNNY     46  25  42 CALM      30.24F
MURFREESBORO   SUNNY     46  23  39 CALM      30.24F
PULASKI        SUNNY     46  30  53 CALM      30.24F
SHELBYVILLE    SUNNY     46  23  39 CALM      30.24F
TULLAHOMA      SUNNY     46  18  31 CALM      30.22F
WINCHESTER     SUNNY     46  25  42 CALM      30.23F
$$


...KEY TO REMARKS...
VSB - VISIBILITY IN MILES
WCI - WIND CHILL INDEX
HX  - HEAT INDEX





USA.gov is the U.S. government's official web portal to all federal, state and local government web resources and services.